User: anonymous   Login
Location: Ostrava
(49.8330°N, 18.2830°E)
Time: 21:14:06
(UTC+02:00)
Language:

NOAA 19 - Orbit

View from above orbital plane
View from above orbital plane
View from above satellite
View from above satellite

Ground track
Ground track

The orbit data is extracted from the following two-line orbital elements,

1 33591U 09005A   17177.90469741 +.00000091 +00000-0 +74758-4 0  9993
2 33591 099.0930 144.8681 0012961 243.3698 116.6146 14.12190049431766
Epoch (UTC): 26 June 2017 21:42:45
Eccentricity: 0.0012961
inclination: 99.0930°
perigee height: 842 km
apogee height: 861 km
right ascension of ascending node: 144.8681°
argument of perigee: 243.3698°
revolutions per day: 14.12190049
mean anomaly at epoch: 116.6146°
orbit number at epoch: 43176

The dashed part of the orbit path shows where the satellite is in the earth's shadow,  

DLR